Location: Bathsheba
(13.2167°N, 59.5167°W)
Time: 00:00:38
(UTC+00:00)

Sich 1 Rocket - Pass Details

Date: 18 September 2020
Orbit: 617 x 652 km, 82.5° (Epoch: 20 October)

Event Time Altitude Azimuth Distance (km) Brightness Sun altitude
Rises 22:25:55 0° 169° (SSE) 2,891 6.8 -8.0°
Reaches altitude 10° 22:28:15 10° 161° (SSE) 1,991 5.9 -8.5°
Maximum altitude 22:32:20 38° 93° (E) 953 4.0 -9.5°
Drops below altitude 10° 22:36:29 10° 24° (NNE) 2,012 6.0 -10.5°
Sets 22:38:51 0° 17° (NNE) 2,926 6.9 -11.1°
